| time (UTC) | temp F | wind direction | speed MPH | gust MPH | rain 1hr in | rain 24hr in | rain mn in | humidity % | barometer mb |
| 20260507175204 | 66 | 7 | 5.0 | 8.0 | 0.00 | 0.01 | 0.01 | 59 | 1011.6 |
| 20260507174704 | 66 | 24 | 5.0 | 8.0 | 0.00 | 0.01 | 0.01 | 59 | 1011.6 |
| 20260507174204 | 66 | 336 | 2.0 | 7.0 | 0.00 | 0.01 | 0.01 | 57 | 1011.6 |
| 20260507173703 | 67 | 6 | 5.0 | 7.0 | 0.00 | 0.01 | 0.01 | 54 | 1011.6 |
| 20260507172704 | 66 | 5 | 1.0 | 8.0 | 0.00 | 0.01 | 0.01 | 52 | 1011.6 |
| 20260507172204 | 67 | 1 | 6.0 | 8.0 | 0.00 | 0.01 | 0.01 | 53 | 1011.6 |
| 20260507171204 | 66 | 348 | 5.0 | 9.0 | 0.00 | 0.01 | 0.01 | 53 | 1011.6 |
| 20260507170203 | 67 | 357 | 6.0 | 9.0 | 0.00 | 0.01 | 0.01 | 52 | 1011.7 |
| 20260507165704 | 67 | 344 | 5.0 | 9.0 | 0.00 | 0.01 | 0.01 | 52 | 1011.6 |
| 20260507165204 | 67 | 16 | 6.0 | 9.0 | 0.00 | 0.01 | 0.01 | 53 | 1011.6 |
| 20260507164204 | 67 | 31 | 6.0 | 9.0 | 0.00 | 0.01 | 0.01 | 53 | 1011.6 |
| 20260507163704 | 66 | 274 | 1.0 | 5.0 | 0.00 | 0.01 | 0.01 | 51 | 1011.7 |
| 20260507163203 | 67 | 133 | 2.0 | 3.0 | 0.00 | 0.01 | 0.01 | 51 | 1011.6 |
| 20260507162704 | 66 | 115 | 1.0 | 3.0 | 0.00 | 0.01 | 0.01 | 54 | 1011.7 |
| 20260507161204 | 65 | 162 | 3.0 | 7.0 | 0.00 | 0.01 | 0.01 | 57 | 1011.7 |
| 20260507160704 | 66 | 147 | 3.0 | 6.0 | 0.00 | 0.01 | 0.01 | 55 | 1011.8 |
| 20260507155704 | 66 | 17 | 2.0 | 6.0 | 0.00 | 0.01 | 0.01 | 55 | 1011.8 |
| 20260507155204 | 65 | 64 | 2.0 | 6.0 | 0.00 | 0.01 | 0.01 | 56 | 1011.9 |
| 20260507154703 | 65 | 73 | 3.0 | 7.0 | 0.00 | 0.01 | 0.01 | 56 | 1011.9 |
| 20260507154204 | 65 | 77 | 5.0 | 7.0 | 0.00 | 0.01 | 0.01 | 56 | 1012.0 |
| 20260507153704 | 65 | 159 | 4.0 | 10.0 | 0.00 | 0.01 | 0.01 | 55 | 1012.0 |
| 20260507152704 | 66 | 52 | 3.0 | 8.0 | 0.00 | 0.01 | 0.01 | 57 | 1012.0 |
| 20260507152204 | 66 | 160 | 2.0 | 8.0 | 0.00 | 0.01 | 0.01 | 57 | 1012.0 |
| 20260507151704 | 67 | 160 | 3.0 | 8.0 | 0.00 | 0.01 | 0.01 | 56 | 1012.1 |
| 20260507150703 | 65 | 167 | 1.0 | 7.0 | 0.00 | 0.01 | 0.01 | 59 | 1012.2 |
| 20260507150204 | 65 | 55 | 2.0 | 7.0 | 0.00 | 0.01 | 0.01 | 58 | 1012.3 |
| 20260507145703 | 66 | 58 | 5.0 | 9.0 | 0.00 | 0.01 | 0.01 | 56 | 1012.4 |
| 20260507145204 | 68 | 26 | 3.0 | 9.0 | 0.00 | 0.01 | 0.01 | 56 | 1012.3 |
| 20260507144204 | 66 | 71 | 4.0 | 8.0 | 0.00 | 0.01 | 0.01 | 56 | 1012.5 |
| 20260507143204 | 66 | 62 | 2.0 | 10.0 | 0.00 | 0.01 | 0.01 | 54 | 1012.6 |
| 20260507142703 | 68 | 105 | 5.0 | 10.0 | 0.00 | 0.01 | 0.01 | 52 | 1012.6 |
| 20260507142204 | 68 | 175 | 3.0 | 12.0 | 0.00 | 0.01 | 0.01 | 55 | 1012.6 |
| 20260507141704 | 66 | 198 | 6.0 | 12.0 | 0.00 | 0.01 | 0.01 | 54 | 1012.6 |
| 20260507141204 | 65 | 160 | 4.0 | 9.0 | 0.00 | 0.01 | 0.01 | 56 | 1012.7 |
| 20260507140704 | 64 | 172 | 6.0 | 10.0 | 0.00 | 0.01 | 0.01 | 59 | 1012.7 |
| 20260507140204 | 64 | 163 | 4.0 | 10.0 | 0.00 | 0.01 | 0.01 | 56 | 1012.8 |
| 20260507135704 | 64 | 165 | 4.0 | 10.0 | 0.00 | 0.01 | 0.01 | 59 | 1012.8 |
| 20260507135204 | 64 | 296 | 1.0 | 7.0 | 0.00 | 0.01 | 0.01 | 56 | 1012.9 |
| 20260507134704 | 65 | 67 | 3.0 | 9.0 | 0.00 | 0.01 | 0.01 | 57 | 1013.0 |
| 20260507134204 | 65 | 137 | 2.0 | 9.0 | 0.00 | 0.01 | 0.01 | 56 | 1013.1 |
| 20260507133704 | 66 | 141 | 4.0 | 10.0 | 0.00 | 0.01 | 0.01 | 57 | 1013.1 |
| 20260507133203 | 67 | 116 | 6.0 | 10.0 | 0.00 | 0.01 | 0.01 | 55 | 1013.1 |
| 20260507131704 | 66 | 51 | 4.0 | 8.0 | 0.00 | 0.01 | 0.01 | 58 | 1013.3 |
| 20260507131203 | 66 | 71 | 5.0 | 13.0 | 0.00 | 0.01 | 0.01 | 58 | 1013.3 |
| 20260507130704 | 67 | 78 | 5.0 | 13.0 | 0.00 | 0.01 | 0.01 | 56 | 1013.3 |
| 20260507130204 | 65 | 113 | 1.0 | 9.0 | 0.00 | 0.01 | 0.01 | 55 | 1013.3 |
| 20260507125704 | 65 | 72 | 3.0 | 7.0 | 0.00 | 0.01 | 0.01 | 56 | 1013.3 |
| 20260507125204 | 67 | 86 | 3.0 | 8.0 | 0.00 | 0.01 | 0.01 | 58 | 1013.3 |
| 20260507124704 | 64 | 114 | 4.0 | 8.0 | 0.00 | 0.01 | 0.01 | 58 | 1013.4 |
| 20260507124203 | 64 | 111 | 5.0 | 10.0 | 0.00 | 0.01 | 0.01 | 58 | 1013.4 |
| 20260507123704 | 64 | 60 | 5.0 | 10.0 | 0.00 | 0.01 | 0.01 | 59 | 1013.5 |
| 20260507123204 | 64 | 89 | 5.0 | 9.0 | 0.00 | 0.01 | 0.01 | 61 | 1013.5 |
| 20260507122204 | 64 | 76 | 2.0 | 9.0 | 0.00 | 0.01 | 0.01 | 61 | 1013.5 |
| 20260507121203 | 63 | 142 | 5.0 | 8.0 | 0.00 | 0.01 | 0.01 | 61 | 1013.6 |
| 20260507120704 | 64 | 142 | 5.0 | 10.0 | 0.00 | 0.01 | 0.01 | 61 | 1013.6 |
| 20260507115704 | 63 | 126 | 6.0 | 12.0 | 0.00 | 0.01 | 0.01 | 64 | 1013.7 |
| 20260507115203 | 64 | 167 | 8.0 | 12.0 | 0.00 | 0.01 | 0.01 | 61 | 1013.6 |
| 20260507114204 | 65 | 107 | 7.0 | 12.0 | 0.00 | 0.01 | 0.01 | 59 | 1013.7 |
| 20260507113704 | 65 | 125 | 6.0 | 12.0 | 0.00 | 0.01 | 0.01 | 60 | 1013.7 |
| 20260507113204 | 66 | 111 | 7.0 | 13.0 | 0.00 | 0.01 | 0.01 | 59 | 1013.7 |
| 20260507112704 | 66 | 123 | 7.0 | 13.0 | 0.00 | 0.01 | 0.01 | 59 | 1013.8 |
| 20260507112203 | 62 | 135 | 3.0 | 10.0 | 0.00 | 0.01 | 0.01 | 59 | 1013.9 |
| 20260507111704 | 63 | 145 | 5.0 | 12.0 | 0.00 | 0.01 | 0.01 | 60 | 1014.0 |
| 20260507110704 | 66 | 111 | 7.0 | 12.0 | 0.00 | 0.01 | 0.01 | 64 | 1014.0 |
| 20260507110204 | 66 | 138 | 8.0 | 12.0 | 0.00 | 0.01 | 0.01 | 60 | 1014.1 |
| 20260507105704 | 64 | 134 | 3.0 | 12.0 | 0.00 | 0.01 | 0.01 | 60 | 1014.1 |
| 20260507105204 | 64 | 117 | 3.0 | 14.0 | 0.00 | 0.01 | 0.01 | 58 | 1014.1 |
| 20260507104704 | 64 | 103 | 8.0 | 14.0 | 0.00 | 0.01 | 0.01 | 63 | 1014.2 |
| 20260507104204 | 62 | 62 | 3.0 | 6.0 | 0.00 | 0.01 | 0.01 | 65 | 1014.3 |
| 20260507103704 | 61 | 174 | 3.0 | 7.0 | 0.00 | 0.01 | 0.01 | 66 | 1014.3 |
| 20260507103204 | 62 | 181 | 5.0 | 7.0 | 0.00 | 0.01 | 0.01 | 64 | 1014.3 |
| 20260507102704 | 62 | 164 | 5.0 | 12.0 | 0.00 | 0.01 | 0.01 | 67 | 1014.4 |
| 20260507102204 | 61 | 113 | 3.0 | 12.0 | 0.00 | 0.01 | 0.01 | 66 | 1014.4 |
| 20260507101704 | 61 | 123 | 5.0 | 9.0 | 0.00 | 0.01 | 0.01 | 67 | 1014.4 |
| 20260507101204 | 62 | 111 | 5.0 | 9.0 | 0.00 | 0.01 | 0.01 | 67 | 1014.4 |
| 20260507100704 | 62 | 84 | 3.0 | 9.0 | 0.00 | 0.01 | 0.01 | 64 | 1014.4 |
| 20260507100204 | 63 | 100 | 6.0 | 9.0 | 0.00 | 0.01 | 0.01 | 66 | 1014.4 |
| 20260507095704 | 63 | 96 | 4.0 | 9.0 | 0.00 | 0.01 | 0.01 | 70 | 1014.4 |
| 20260507095204 | 63 | 123 | 5.0 | 9.0 | 0.00 | 0.01 | 0.01 | 65 | 1014.5 |
| 20260507094704 | 62 | 59 | 4.0 | 9.0 | 0.00 | 0.01 | 0.01 | 64 | 1014.4 |
| 20260507094204 | 62 | 91 | 3.0 | 8.0 | 0.00 | 0.01 | 0.01 | 70 | 1014.5 |
| 20260507093704 | 60 | 89 | 3.0 | 9.0 | 0.00 | 0.01 | 0.01 | 66 | 1014.4 |
| 20260507093204 | 61 | 97 | 3.0 | 12.0 | 0.00 | 0.01 | 0.01 | 66 | 1014.5 |
| 20260507092704 | 62 | 128 | 6.0 | 12.0 | 0.00 | 0.01 | 0.01 | 68 | 1014.5 |
| 20260507091704 | 62 | 157 | 5.0 | 7.0 | 0.00 | 0.01 | 0.01 | 70 | 1014.4 |
| 20260507091204 | 60 | 87 | 3.0 | 7.0 | 0.00 | 0.01 | 0.01 | 69 | 1014.4 |
| 20260507090204 | 60 | 113 | 3.0 | 6.0 | 0.00 | 0.01 | 0.01 | 71 | 1014.4 |
| 20260507085204 | 59 | 142 | 5.0 | 9.0 | 0.00 | 0.01 | 0.01 | 75 | 1014.4 |
| 20260507084704 | 60 | 160 | 5.0 | 9.0 | 0.00 | 0.01 | 0.01 | 76 | 1014.4 |
| 20260507084204 | 61 | 166 | 5.0 | 9.0 | 0.00 | 0.01 | 0.01 | 76 | 1014.4 |
| 20260507083203 | 59 | 166 | 5.0 | 8.0 | 0.00 | 0.01 | 0.01 | 76 | 1014.4 |
| 20260507082703 | 59 | 143 | 4.0 | 8.0 | 0.00 | 0.01 | 0.01 | 75 | 1014.4 |
| 20260507082205 | 59 | 147 | 6.0 | 8.0 | 0.00 | 0.01 | 0.01 | 78 | 1014.5 |
| 20260507081704 | 59 | 173 | 5.0 | 7.0 | 0.00 | 0.01 | 0.01 | 79 | 1014.5 |
| 20260507081204 | 58 | 167 | 4.0 | 7.0 | 0.00 | 0.01 | 0.01 | 79 | 1014.5 |
| 20260507080704 | 58 | 162 | 5.0 | 7.0 | 0.00 | 0.02 | 0.01 | 80 | 1014.5 |
| 20260507080204 | 58 | 137 | 4.0 | 7.0 | 0.00 | 0.02 | 0.01 | 80 | 1014.5 |
| 20260507075704 | 58 | 151 | 5.0 | 7.0 | 0.00 | 0.02 | 0.01 | 79 | 1014.5 |
| 20260507075204 | 58 | 145 | 4.0 | 7.0 | 0.00 | 0.02 | 0.01 | 80 | 1014.5 |
| 20260507074704 | 57 | 117 | 5.0 | 7.0 | 0.00 | 0.02 | 0.01 | 80 | 1014.4 |
| 20260507074204 | 57 | 135 | 3.0 | 7.0 | 0.00 | 0.02 | 0.01 | 83 | 1014.4 |
| 20260507072704 | 56 | 107 | 4.0 | 6.0 | 0.01 | 0.02 | 0.01 | 86 | 1014.2 |
| 20260507072204 | 56 | 91 | 2.0 | 6.0 | 0.01 | 0.02 | 0.01 | 87 | 1014.2 |
| 20260507071704 | 55 | 49 | 3.0 | 6.0 | 0.01 | 0.02 | 0.01 | 88 | 1014.2 |
| 20260507071206 | 55 | 94 | 3.0 | 6.0 | 0.01 | 0.02 | 0.01 | 89 | 1014.2 |
| 20260507070704 | 54 | 98 | 3.0 | 6.0 | 0.01 | 0.02 | 0.01 | 90 | 1014.3 |
| 20260507070204 | 54 | 88 | 3.0 | 6.0 | 0.01 | 0.02 | 0.01 | 90 | 1014.3 |
| 20260507065203 | 54 | 92 | 3.0 | 6.0 | 0.01 | 0.02 | 0.01 | 92 | 1014.2 |
| 20260507064704 | 53 | 153 | 2.0 | 5.0 | 0.01 | 0.02 | 0.01 | 92 | 1014.2 |
| 20260507063704 | 52 | 50 | 2.0 | 5.0 | 0.01 | 0.02 | 0.01 | 93 | 1014.0 |
| 20260507062704 | 51 | 44 | 3.0 | 3.0 | 0.00 | 0.01 | 0.00 | 93 | 1014.1 |
| 20260507062204 | 50 | 47 | 2.0 | 3.0 | 0.00 | 0.01 | 0.00 | 93 | 1014.1 |
| 20260507061703 | 50 | 55 | 2.0 | 2.0 | 0.00 | 0.01 | 0.00 | 93 | 1014.1 |
| 20260507061204 | 49 | 83 | 1.0 | 2.0 | 0.00 | 0.01 | 0.00 | 93 | 1014.0 |
| 20260507060704 | 49 | 159 | 1.0 | 2.0 | 0.00 | 0.01 | 0.00 | 93 | 1014.1 |
| 20260507055704 | 49 | 202 | 1.0 | 2.0 | 0.00 | 0.01 | 0.00 | 93 | 1014.0 |
| 20260507055204 | 48 | 196 | 1.0 | 1.0 | 0.00 | 0.01 | 0.00 | 93 | 1014.0 |
| 20260507054704 | 48 | 209 | 1.0 | 2.0 | 0.00 | 0.01 | 0.00 | 93 | 1014.0 |
| 20260507054203 | 48 | 166 | 1.0 | 3.0 | 0.00 | 0.01 | 0.00 | 93 | 1014.0 |
| 20260507053704 | 48 | 52 | 2.0 | 5.0 | 0.00 | 0.01 | 0.00 | 93 | 1013.9 |
| 20260507053204 | 49 | 46 | 3.0 | 5.0 | 0.00 | 0.01 | 0.00 | 93 | 1013.9 |
| 20260507052704 | 49 | 45 | 3.0 | 6.0 | 0.00 | 0.01 | 0.00 | 93 | 1013.9 |
| 20260507052204 | 49 | 43 | 3.0 | 6.0 | 0.00 | 0.01 | 0.00 | 93 | 1013.8 |
| 20260507051204 | 49 | 43 | 4.0 | 5.0 | 0.00 | 0.01 | 0.00 | 93 | 1013.8 |
| 20260507050703 | 49 | 35 | 4.0 | 5.0 | 0.00 | 0.01 | 0.00 | 93 | 1013.7 |
| 20260507050203 | 49 | 33 | 3.0 | 3.0 | 0.00 | 0.01 | 0.00 | 93 | 1013.6 |
| 20260507045704 | 49 | 37 | 3.0 | 3.0 | 0.00 | 0.01 | 0.00 | 93 | 1013.6 |
| 20260507045204 | 49 | 30 | 3.0 | 3.0 | 0.00 | 0.01 | 0.00 | 93 | 1013.7 |
| 20260507044704 | 49 | 19 | 2.0 | 2.0 | 0.00 | 0.01 | 0.00 | 93 | 1013.7 |
| 20260507044204 | 49 | 5 | 1.0 | 3.0 | 0.00 | 0.01 | 0.00 | 92 | 1013.7 |
| 20260507043204 | 49 | 27 | 2.0 | 3.0 | 0.00 | 0.01 | 0.00 | 92 | 1013.7 |
| 20260507042704 | 50 | 25 | 2.0 | 3.0 | 0.00 | 0.01 | 0.00 | 92 | 1013.6 |
| 20260507042204 | 50 | 17 | 2.0 | 3.0 | 0.00 | 0.01 | 0.00 | 92 | 1013.6 |
| 20260507041704 | 50 | 345 | 2.0 | 3.0 | 0.00 | 0.01 | 0.00 | 92 | 1013.6 |
| 20260507040204 | 50 | 24 | 2.0 | 5.0 | 0.00 | 0.01 | 0.00 | 91 | 1013.6 |
| 20260507035704 | 51 | 48 | 3.0 | 6.0 | 0.00 | 0.01 | 0.00 | 91 | 1013.6 |
| 20260507035204 | 51 | 55 | 5.0 | 6.0 | 0.00 | 0.01 | 0.00 | 91 | 1013.6 |
| 20260507034704 | 51 | 54 | 5.0 | 7.0 | 0.00 | 0.01 | 0.00 | 91 | 1013.6 |
| 20260507034204 | 51 | 56 | 5.0 | 7.0 | 0.00 | 0.01 | 0.00 | 91 | 1013.6 |
| 20260507033704 | 51 | 54 | 6.0 | 7.0 | 0.00 | 0.01 | 0.00 | 91 | 1013.6 |
| 20260507033204 | 51 | 53 | 5.0 | 7.0 | 0.00 | 0.01 | 0.00 | 91 | 1013.6 |
| 20260507032703 | 51 | 52 | 5.0 | 7.0 | 0.00 | 0.01 | 0.00 | 91 | 1013.6 |
| 20260507032203 | 51 | 49 | 5.0 | 6.0 | 0.00 | 0.01 | 0.00 | 91 | 1013.6 |
| 20260507031204 | 51 | 52 | 5.0 | 6.0 | 0.00 | 0.01 | 0.00 | 91 | 1013.6 |
| 20260507030704 | 52 | 52 | 5.0 | 6.0 | 0.00 | 0.01 | 0.00 | 91 | 1013.6 |
| 20260507030203 | 52 | 53 | 3.0 | 6.0 | 0.00 | 0.01 | 0.00 | 91 | 1013.5 |
| 20260507025704 | 52 | 50 | 4.0 | 6.0 | 0.00 | 0.01 | 0.00 | 91 | 1013.6 |
| 20260507025204 | 52 | 51 | 4.0 | 6.0 | 0.00 | 0.01 | 0.00 | 92 | 1013.5 |
| 20260507024704 | 52 | 46 | 4.0 | 6.0 | 0.00 | 0.01 | 0.00 | 92 | 1013.5 |
| 20260507024204 | 52 | 47 | 3.0 | 5.0 | 0.00 | 0.01 | 0.00 | 92 | 1013.5 |
| 20260507023704 | 52 | 53 | 3.0 | 5.0 | 0.00 | 0.01 | 0.00 | 92 | 1013.6 |
| 20260507023204 | 51 | 51 | 3.0 | 5.0 | 0.00 | 0.01 | 0.00 | 92 | 1013.6 |
| 20260507022704 | 51 | 52 | 5.0 | 6.0 | 0.00 | 0.01 | 0.00 | 92 | 1013.6 |
| 20260507021704 | 51 | 54 | 5.0 | 6.0 | 0.00 | 0.01 | 0.00 | 93 | 1013.5 |
| 20260507021204 | 51 | 52 | 5.0 | 6.0 | 0.00 | 0.01 | 0.00 | 93 | 1013.5 |
| 20260507020703 | 51 | 48 | 3.0 | 5.0 | 0.00 | 0.01 | 0.00 | 93 | 1013.5 |
| 20260507020204 | 51 | 54 | 3.0 | 5.0 | 0.00 | 0.01 | 0.00 | 93 | 1013.5 |
| 20260507015203 | 50 | 40 | 2.0 | 3.0 | 0.00 | 0.01 | 0.00 | 93 | 1013.5 |
| 20260507014204 | 50 | 74 | 1.0 | 2.0 | 0.00 | 0.01 | 0.00 | 93 | 1013.6 |
| 20260507013704 | 50 | 55 | 2.0 | 3.0 | 0.00 | 0.01 | 0.00 | 93 | 1013.6 |
| 20260507013204 | 50 | 53 | 2.0 | 3.0 | 0.00 | 0.01 | 0.00 | 93 | 1013.5 |
| 20260507012704 | 50 | 54 | 2.0 | 3.0 | 0.00 | 0.01 | 0.00 | 93 | 1013.5 |
| 20260507012204 | 50 | 37 | 2.0 | 3.0 | 0.00 | 0.01 | 0.00 | 93 | 1013.5 |
| 20260507011704 | 50 | 47 | 2.0 | 3.0 | 0.00 | 0.01 | 0.00 | 93 | 1013.6 |
| 20260507011203 | 50 | 21 | 2.0 | 5.0 | 0.00 | 0.01 | 0.00 | 93 | 1013.6 |
| 20260507010704 | 50 | 33 | 3.0 | 5.0 | 0.00 | 0.01 | 0.00 | 93 | 1013.6 |
| 20260507010203 | 50 | 28 | 3.0 | 5.0 | 0.00 | 0.01 | 0.00 | 93 | 1013.6 |
| 20260507005703 | 49 | 23 | 3.0 | 6.0 | 0.00 | 0.01 | 0.00 | 93 | 1013.7 |
| 20260507004704 | 49 | 353 | 5.0 | 5.0 | 0.00 | 0.01 | 0.00 | 93 | 1013.7 |
| 20260507004204 | 49 | 2 | 5.0 | 5.0 | 0.00 | 0.01 | 0.00 | 93 | 1013.8 |
| 20260507003704 | 49 | 20 | 3.0 | 5.0 | 0.00 | 0.01 | 0.00 | 93 | 1013.8 |
| 20260507003204 | 49 | 293 | 2.0 | 2.0 | 0.00 | 0.01 | 0.00 | 93 | 1013.8 |
| 20260507002703 | 49 | 284 | 2.0 | 2.0 | 0.00 | 0.01 | 0.00 | 93 | 1013.9 |
| 20260507002204 | 49 | 289 | 2.0 | 2.0 | 0.00 | 0.01 | 0.00 | 93 | 1013.9 |
| 20260507001704 | 49 | 245 | 1.0 | 1.0 | 0.00 | 0.01 | 0.00 | 93 | 1013.9 |
| 20260507001204 | 49 | 254 | 1.0 | 1.0 | 0.00 | 0.01 | 0.00 | 93 | 1014.0 |
| 20260507000704 | 49 | 256 | 1.0 | 1.0 | 0.00 | 0.01 | 0.00 | 93 | 1014.0 |
| 20260507000205 | 48 | 255 | 1.0 | 2.0 | 0.00 | 0.01 | 0.00 | 93 | 1014.0 |
| 20260506235204 | 48 | 255 | 2.0 | 2.0 | 0.00 | 0.01 | 0.01 | 93 | 1014.0 |
| 20260506234704 | 49 | 248 | 2.0 | 2.0 | 0.00 | 0.01 | 0.01 | 93 | 1014.0 |
| 20260506233703 | 48 | 153 | 0.0 | 1.0 | 0.00 | 0.01 | 0.01 | 93 | 1014.0 |
| 20260506233204 | 48 | 332 | 0.0 | 1.0 | 0.00 | 0.01 | 0.01 | 93 | 1014.0 |
| 20260506232704 | 48 | 329 | 1.0 | 2.0 | 0.00 | 0.01 | 0.01 | 93 | 1013.9 |
| 20260506231704 | 49 | 306 | 1.0 | 2.0 | 0.00 | 0.01 | 0.01 | 93 | 1013.9 |
| 20260506231204 | 49 | 318 | 2.0 | 2.0 | 0.00 | 0.01 | 0.01 | 93 | 1013.9 |
| 20260506230704 | 49 | 315 | 2.0 | 3.0 | 0.00 | 0.01 | 0.01 | 93 | 1014.0 |
| 20260506230205 | 49 | 306 | 2.0 | 3.0 | 0.00 | 0.01 | 0.01 | 93 | 1014.0 |
| 20260506225704 | 50 | 298 | 3.0 | 3.0 | 0.00 | 0.01 | 0.01 | 93 | 1014.0 |
| 20260506224704 | 50 | 299 | 2.0 | 2.0 | 0.00 | 0.01 | 0.01 | 92 | 1013.9 |
| 20260506224204 | 51 | 303 | 1.0 | 2.0 | 0.00 | 0.01 | 0.01 | 92 | 1013.9 |
| 20260506223704 | 51 | 324 | 1.0 | 2.0 | 0.00 | 0.01 | 0.01 | 92 | 1013.9 |
| 20260506222703 | 51 | 315 | 1.0 | 2.0 | 0.00 | 0.01 | 0.01 | 92 | 1013.9 |
| 20260506222203 | 52 | 327 | 1.0 | 2.0 | 0.00 | 0.01 | 0.01 | 92 | 1013.9 |
| 20260506221705 | 52 | 336 | 2.0 | 3.0 | 0.00 | 0.01 | 0.01 | 92 | 1013.9 |
| 20260506221204 | 52 | 345 | 2.0 | 3.0 | 0.00 | 0.01 | 0.01 | 92 | 1013.8 |
| 20260506220704 | 52 | 336 | 3.0 | 5.0 | 0.00 | 0.01 | 0.01 | 92 | 1013.8 |
| 20260506220203 | 52 | 335 | 3.0 | 5.0 | 0.00 | 0.01 | 0.01 | 92 | 1013.8 |
| 20260506215704 | 52 | 335 | 3.0 | 5.0 | 0.00 | 0.01 | 0.01 | 92 | 1013.8 |
| 20260506215204 | 52 | 338 | 2.0 | 5.0 | 0.00 | 0.01 | 0.01 | 92 | 1013.8 |
| 20260506214704 | 52 | 333 | 3.0 | 5.0 | 0.00 | 0.01 | 0.01 | 92 | 1013.9 |
| 20260506214204 | 52 | 329 | 3.0 | 5.0 | 0.00 | 0.01 | 0.01 | 92 | 1013.9 |
| 20260506213704 | 52 | 308 | 3.0 | 3.0 | 0.00 | 0.01 | 0.01 | 92 | 1013.9 |
| 20260506213204 | 53 | 299 | 2.0 | 3.0 | 0.00 | 0.01 | 0.01 | 91 | 1013.9 |
| 20260506212704 | 53 | 294 | 2.0 | 3.0 | 0.00 | 0.01 | 0.01 | 91 | 1013.9 |
| 20260506212204 | 53 | 286 | 2.0 | 3.0 | 0.00 | 0.01 | 0.01 | 91 | 1013.9 |
| 20260506211703 | 53 | 280 | 2.0 | 3.0 | 0.00 | 0.01 | 0.01 | 91 | 1013.8 |
| 20260506211204 | 53 | 276 | 3.0 | 3.0 | 0.00 | 0.01 | 0.01 | 91 | 1013.9 |
| 20260506210703 | 53 | 252 | 2.0 | 2.0 | 0.00 | 0.01 | 0.01 | 90 | 1013.8 |
| 20260506210204 | 53 | 264 | 1.0 | 2.0 | 0.00 | 0.01 | 0.01 | 90 | 1013.8 |
| 20260506205704 | 53 | 351 | 1.0 | 2.0 | 0.00 | 0.01 | 0.01 | 90 | 1013.7 |
| 20260506205204 | 54 | 11 | 1.0 | 2.0 | 0.00 | 0.01 | 0.01 | 90 | 1013.7 |
| 20260506203704 | 54 | 329 | 1.0 | 3.0 | 0.00 | 0.01 | 0.01 | 90 | 1013.6 |
| 20260506202704 | 54 | 337 | 2.0 | 3.0 | 0.00 | 0.01 | 0.01 | 89 | 1013.5 |
| 20260506202204 | 54 | 332 | 2.0 | 3.0 | 0.00 | 0.01 | 0.01 | 89 | 1013.4 |
| 20260506201704 | 54 | 330 | 2.0 | 3.0 | 0.00 | 0.01 | 0.01 | 89 | 1013.3 |
| 20260506201205 | 54 | 325 | 2.0 | 3.0 | 0.00 | 0.01 | 0.01 | 89 | 1013.3 |
| 20260506200703 | 54 | 320 | 2.0 | 3.0 | 0.00 | 0.01 | 0.01 | 88 | 1013.2 |
| 20260506200205 | 54 | 322 | 3.0 | 3.0 | 0.00 | 0.01 | 0.01 | 89 | 1013.1 |
| 20260506195704 | 54 | 316 | 3.0 | 3.0 | 0.00 | 0.01 | 0.01 | 89 | 1013.1 |
| 20260506195204 | 54 | 311 | 2.0 | 3.0 | 0.00 | 0.01 | 0.01 | 89 | 1013.1 |
| 20260506194704 | 54 | 308 | 2.0 | 3.0 | 0.00 | 0.01 | 0.01 | 89 | 1013.1 |
| 20260506193704 | 54 | 311 | 2.0 | 3.0 | 0.00 | 0.01 | 0.01 | 89 | 1013.0 |
| 20260506193204 | 54 | 312 | 2.0 | 3.0 | 0.00 | 0.01 | 0.01 | 89 | 1012.9 |
| 20260506192704 | 54 | 309 | 2.0 | 5.0 | 0.00 | 0.01 | 0.01 | 89 | 1012.9 |
| 20260506192204 | 54 | 303 | 2.0 | 5.0 | 0.00 | 0.01 | 0.01 | 89 | 1012.9 |
| 20260506191703 | 54 | 303 | 4.0 | 5.0 | 0.00 | 0.01 | 0.01 | 89 | 1012.8 |
| 20260506191203 | 54 | 296 | 4.0 | 5.0 | 0.00 | 0.01 | 0.01 | 88 | 1012.8 |
| 20260506190704 | 54 | 283 | 3.0 | 5.0 | 0.00 | 0.01 | 0.01 | 88 | 1012.7 |
| 20260506185703 | 54 | 279 | 3.0 | 5.0 | 0.00 | 0.01 | 0.01 | 87 | 1012.7 |
| 20260506185204 | 55 | 285 | 3.0 | 6.0 | 0.00 | 0.01 | 0.01 | 86 | 1012.7 |
| 20260506184204 | 55 | 292 | 5.0 | 9.0 | 0.00 | 0.01 | 0.01 | 84 | 1012.6 |
| 20260506183704 | 55 | 293 | 6.0 | 10.0 | 0.00 | 0.01 | 0.01 | 82 | 1012.6 |
| 20260506183204 | 55 | 305 | 7.0 | 10.0 | 0.00 | 0.01 | 0.01 | 81 | 1012.6 |
| 20260506182704 | 56 | 323 | 8.0 | 10.0 | 0.00 | 0.01 | 0.01 | 79 | 1012.5 |
| 20260506181703 | 57 | 324 | 8.0 | 10.0 | 0.00 | 0.01 | 0.01 | 77 | 1012.4 |
| 20260506181203 | 57 | 317 | 7.0 | 10.0 | 0.00 | 0.01 | 0.01 | 77 | 1012.3 |
| 20260506180704 | 57 | 311 | 7.0 | 9.0 | 0.00 | 0.01 | 0.01 | 77 | 1012.3 |
| 20260506180204 | 57 | 309 | 7.0 | 9.0 | 0.00 | 0.01 | 0.01 | 77 | 1012.3 |
| 20260506175704 | 57 | 311 | 6.0 | 9.0 | 0.00 | 0.01 | 0.01 | 76 | 1012.2 |